FW9819 Weather Reports


Display with metric or nautical units.
time (UTC)temp
F
wind
direction
speed
MPH
gust
MPH
rain 1hr
in
rain 24hr
in
rain mn
in
humidity
%
barometer
mb
20260505193056 75 157 1.0 5.0 0.00 0.00 0.00 52 1014.6
20260505191541 75 171 1.0 9.0 0.00 0.00 0.00 52 1014.7
20260505190012 74 135 1.0 4.0 0.00 0.00 0.00 53 1014.7
20260505184558 74 171 1.0 6.0 0.00 0.00 0.00 54 1014.7
20260505183030 73 156 1.0 5.0 0.00 0.00 0.00 56 1014.8
20260505181511 72 252 1.0 5.0 0.00 0.00 0.00 58 1014.9
20260505180053 71 321 1.0 4.0 0.00 0.00 0.00 60 1015.0
20260505174537 70 185 2.0 6.0 0.00 0.00 0.00 59 1015.0
20260505173006 70 243 1.0 3.0 0.00 0.00 0.00 59 1015.0
20260505171544 69 196 1.0 4.0 0.00 0.00 0.00 61 1015.0
20260505170028 68 178 1.0 4.0 0.00 0.00 0.00 63 1015.0
20260505164558 67 145 1.0 6.0 0.00 0.00 0.00 64 1015.0
20260505163040 66 309 1.0 3.0 0.00 0.00 0.00 66 1015.0
20260505161512 65 275 1.0 8.0 0.00 0.00 0.00 68 1015.1
20260505153007 60 176 0.0 2.0 0.00 0.00 0.00 77 1014.9
20260505151548 58 176 0.0 2.0 0.00 0.00 0.00 81 1014.9
20260505124519 54 176 0.0 2.0 0.00 0.00 0.00 85 1013.6
20260505123114 54 177 0.0 2.0 0.00 0.00 0.00 85 1013.4
20260505123000 54 177 0.0 2.0 0.00 0.00 0.00 84 1013.4
20260505121541 54 165 0.0 2.0 0.00 0.00 0.00 84 1013.3
20260505120028 55 165 0.0 2.0 0.00 0.00 0.00 83 1013.2
20260505114613 55 165 0.0 2.0 0.00 0.00 0.00 83 1013.1
20260505113040 56 165 0.0 2.0 0.00 0.00 0.00 83 1013.1
20260505111533 56 165 0.0 2.0 0.00 0.00 0.00 82 1013.0
20260505101602 58 134 0.0 4.0 0.00 0.00 0.00 81 1012.5
20260505101503 58 134 0.0 4.0 0.00 0.00 0.00 81 1012.4
20260505100043 58 144 0.0 3.0 0.00 0.00 0.00 81 1012.4
20260505094522 59 325 0.0 2.0 0.00 0.00 0.00 79 1012.2
20260505093100 59 216 0.0 2.0 0.00 0.00 0.00 79 1012.3
20260505093009 59 216 0.0 2.0 0.00 0.00 0.00 79 1012.2
20260505091545 60 207 0.0 2.0 0.00 0.00 0.00 79 1012.2
20260505090034 60 275 0.0 4.0 0.00 0.00 0.00 79 1012.1
20260505084518 59 336 0.0 4.0 0.00 0.00 0.00 80 1012.0
20260505083108 59 130 1.0 2.0 0.00 0.00 0.00 79 1012.0
20260505081537 60 130 0.0 2.0 0.00 0.00 0.00 79 1011.9
20260505080116 60 130 0.0 2.0 0.00 0.00 0.00 78 1011.9
20260505074524 60 56 0.0 2.0 0.00 0.00 0.00 77 1011.9
20260505073006 61 56 0.0 2.0 0.00 0.00 0.00 75 1011.9
20260505071544 61 56 0.0 2.0 0.00 0.00 0.00 75 1011.8
20260505070028 62 55 0.0 2.0 0.00 0.00 0.00 74 1011.6
20260505064604 62 55 1.0 2.0 0.00 0.00 0.00 73 1011.5
20260505064501 62 55 0.0 2.0 0.00 0.00 0.00 73 1011.5
20260505063049 63 43 0.0 2.0 0.00 0.00 0.00 72 1011.4
20260505061537 64 43 0.0 2.0 0.00 0.00 0.00 70 1011.5
20260505060015 64 43 0.0 4.0 0.00 0.00 0.00 69 1011.3
20260505054602 65 188 0.0 2.0 0.00 0.00 0.00 68 1011.3
20260505053043 65 62 0.0 3.0 0.00 0.00 0.00 68 1011.2
20260505051527 65 63 0.0 2.0 0.00 0.00 0.00 66 1011.1
20260505041534 68 150 0.0 2.0 0.00 0.00 0.00 62 1010.5
20260505040006 68 150 0.0 2.0 0.00 0.00 0.00 60 1010.3
20260505034551 69 192 1.0 4.0 0.00 0.00 0.00 59 1010.0
20260505033036 70 348 1.0 5.0 0.00 0.00 0.00 58 1009.8
20260505031515 70 311 1.0 5.0 0.00 0.00 0.00 57 1009.6
20260505030057 71 342 0.0 3.0 0.00 0.00 0.00 57 1009.5
20260505024546 72 22 1.0 4.0 0.00 0.00 0.00 56 1009.2
20260505023025 73 278 1.0 3.0 0.00 0.00 0.00 54 1009.0
20260505021600 74 197 1.0 9.0 0.00 0.00 0.00 52 1009.0
20260505021502 74 257 2.0 9.0 0.00 0.00 0.00 53 1009.0
20260505020041 75 346 2.0 9.0 0.00 0.00 0.00 51 1008.8
20260505014521 76 165 4.0 12.0 0.00 0.00 0.00 49 1008.7
20260505013019 77 196 2.0 7.0 0.00 0.00 0.00 48 1008.8
20260505011551 79 137 3.0 9.0 0.00 0.00 0.00 46 1008.8
20260505010041 80 10 2.0 7.0 0.00 0.00 0.00 45 1008.6
20260505004524 81 73 2.0 8.0 0.00 0.00 0.00 43 1008.7
20260505003057 83 218 1.0 9.0 0.00 0.00 0.00 42 1008.7
20260505001549 84 268 2.0 8.0 0.00 0.00 0.00 40 1008.8
20260505000030 84 241 2.0 7.0 0.00 0.00 0.00 39 1008.9
20260504234509 85 150 2.0 6.0 0.00 0.00 0.00 37 1008.9
20260504233053 85 323 2.0 9.0 0.00 0.00 0.00 36 1008.9
20260504231555 85 291 1.0 5.0 0.00 0.00 0.00 37 1008.9
20260504230025 84 121 1.0 8.0 0.00 0.00 0.00 35 1009.2
20260504224557 85 126 1.0 4.0 0.00 0.00 0.00 37 1009.3
20260504223039 84 355 2.0 7.0 0.00 0.00 0.00 38 1009.6
20260504221515 84 216 2.0 6.0 0.00 0.00 0.00 38 1009.7
20260504220100 84 200 3.0 8.0 0.00 0.00 0.00 34 1009.8
20260504220003 84 220 2.0 8.0 0.00 0.00 0.00 35 1009.8
20260504214537 84 150 2.0 6.0 0.00 0.00 0.00 36 1009.9
20260504213023 84 75 1.0 6.0 0.00 0.00 0.00 36 1010.1
20260504211559 84 150 2.0 6.0 0.00 0.00 0.00 37 1010.2
20260504211511 84 333 2.0 6.0 0.00 0.00 0.00 37 1010.2
20260504210101 84 282 1.0 4.0 0.00 0.00 0.00 35 1010.4
20260504204525 84 217 2.0 7.0 0.00 0.00 0.00 37 1010.5
20260504203009 84 122 2.0 5.0 0.00 0.00 0.00 34 1010.5
20260504201549 83 150 1.0 4.0 0.00 0.00 0.00 35 1010.6
20260504200024 83 305 1.0 3.0 0.00 0.00 0.00 37 1010.7
20260504194610 83 201 1.0 4.0 0.00 0.00 0.00 40 1010.8
20260504194501 83 201 1.0 4.0 0.00 0.00 0.00 40 1010.8